Flag for Germany Weather past 2 weeks in Bad Oeynhausen, North Rhine-Westphalia, Germany

Now
52 °F

Cool.


Feels Like: 46 °F
Forecast: 48 / 50 °F
Wind: 20 mph from West

Location: Bueckeburg

Current Time: Dec 22, 2014 at 11:53:01 PM

Latest Report: Dec 22, 2014 at 11:20 PM


Visibility: 2 mi

Pressure: 29.92 "Hg

Humidity: 88%

Dew point: 48 °F

Location of Bad OeynhausenLocation

Historic Weather in Bad Oeynhausen — Graph

°F

Bad Oeynhausen temperature yesterday

Maximum temperature yesterday: 46 °F (at 10:20 PM)
Minimum temperature yesterday: 39 °F (at 1:20 AM)
Average temperature yesterday: 43 °F

Past Weeks' High & Low Weather Summary

 TemperatureHumidityPressure
High54 °F (Dec 18, 2:20 PM)94% (Dec 18, 12:20 AM)30.36 "Hg (Dec 18, 12:20 AM)
Low34 °F (Dec 14, 9:20 PM)61% (Dec 10, 5:20 AM)29.30 "Hg (Dec 12, 3:20 PM)
Average42 °F84%29.88 "Hg
* Reported Dec 7 10:20 PM — Dec 22 10:20 PM, Bad Oeynhausen, Weather by CustomWeather, © 2014

Note: Actual official high and low records may vary slightly from our data, if they occured in-between our weather recording intervals... More about our weather records

Advertising

Bad Oeynhausen weather history for previous 24 hours

 ConditionsComfort  
Time TempWeatherWind HumidityBarometerVisibility
10:20 PM
Dec 22
52 °FCool.20 mph88%29.89 "Hg3 mi
9:20 PM52 °FCool.21 mph88%29.89 "Hg2 mi
8:20 PM52 °FCool.18 mph88%29.89 "Hg2 mi
7:20 PM52 °FCool.21 mph88%29.89 "Hg2 mi
6:20 PM50 °FCool.21 mph94%29.92 "Hg1 mi
5:20 PM50 °FCool.22 mph94%29.89 "Hg1 mi
4:20 PM50 °FCool.22 mph88%29.89 "Hg1 mi
3:20 PM50 °FDrizzle. Fog.25 mph88%29.86 "Hg3 mi
2:57 PM50 °FDrizzle. Fog.25 mph88%29.89 "Hg3 mi
2:46 PM50 °FPartly sunny.22 mph88%29.89 "HgN/A
2:20 PM50 °FBroken clouds.25 mph88%29.89 "HgN/A
1:20 PM48 °FDrizzle. Fog.24 mph94%29.89 "Hg3 mi
12:20 PM48 °FDrizzle. Fog.26 mph94%29.92 "Hg2 mi
11:20 AM48 °FDrizzle. Fog.29 mph87%29.92 "Hg3 mi
10:50 AM48 °FDrizzle. Partly sunny.26 mph87%29.89 "Hg4 mi
10:20 AM48 °FDrizzle. Fog.29 mph87%29.89 "Hg3 mi
9:20 AM48 °FDrizzle. Fog.24 mph87%29.92 "Hg3 mi
8:20 AM48 °FDrizzle. Fog.25 mph87%29.92 "Hg2 mi
7:20 AM48 °FDrizzle. Fog.23 mph87%29.92 "Hg3 mi
6:20 AM48 °FDrizzle. Fog.22 mph87%29.95 "Hg2 mi
5:20 AM48 °FCool.24 mph87%29.95 "Hg2 mi
4:20 AM48 °FCool.24 mph87%29.95 "Hg4 mi
3:20 AM46 °FCool.23 mph93%29.98 "Hg4 mi
2:20 AM46 °FCool.24 mph87%29.98 "Hg3 mi
1:20 AM46 °FCool.22 mph87%30.01 "Hg4 mi
12:20 AM46 °FCool.23 mph87%30.04 "Hg4 mi
11:20 PM
Dec 21
46 °FCool.21 mph87%30.04 "Hg4 mi
Weather by CustomWeather, © 2014

See weather overviewHow to use our weather pages